Location: George Washington National Forest Helicopter Landing Site
(38.6463°N, 79.0851°W)
Time: 19:07:48
(UTC-04:00)

Tiros 1 despin weight - Pass Details

Date: 24 August 2019
Orbit: 594 x 642 km, 48.2° (Epoch: 19 September)

Event Time Altitude Azimuth Distance (km) Brightness Sun altitude
Rises 06:45:40 0° 296° (WNW) 2,887 ? 0.6°
Reaches altitude 10° 06:48:06 10° 288° (WNW) 1,987 ? 1.0°
Maximum altitude 06:52:15 35° 222° (SW) 1,007 ? 1.8°
Drops below altitude 10° 06:56:28 10° 157° (SSE) 2,003 ? 2.6°
Sets 06:58:56 0° 148° (SSE) 2,914 ? 3.1°
